Track COSMOS 1651 (GLONASS) now! COSMOS 1651 (GLONASS) is classified as:
1 15698U 85037B 21022.32559064 .00000002 00000-0 00000-0 0 9995 2 15698 64.1551 140.7066 0014420 19.6541 62.7195 2.13125040277761